When you browse on this site, cookies collect data to enhance your experience and personalize the content and advertising you see.
Visit our Privacy Policy to learn more. By continuing to use the site, you agree to this use of cookies and data.

Hourly Weather Gold Coast

Today, 12 July, Sunday

Time Temperature Precipitation Wind Pressure Humidity
00:00 +14°C° 0 mm 3 mps 758 mmHg 95%
01:00 +14°C° 0 mm 3 mps 758 mmHg 95%
02:00 +14°C° 0 mm 3 mps 758 mmHg 95%
03:00 +13°C° 0 mm 3 mps 757 mmHg 94%
04:00 +13°C° 0 mm 3 mps 757 mmHg 95%
05:00 +14°C° 0 mm 2 mps 757 mmHg 95%
06:00 +14°C° 0 mm 2 mps 757 mmHg 95%
07:00 +14°C° 0 mm 2 mps 758 mmHg 95%
08:00 +17°C° 0 mm 2 mps 758 mmHg 86%
09:00 +19°C° 0 mm 2 mps 758 mmHg 77%
10:00 +21°C° 0 mm 2 mps 758 mmHg 68%
11:00 +21°C° 0.2 mm 2 mps 758 mmHg 68%
12:00 +23°C° 0.2 mm 1 mps 757 mmHg 68%
13:00 +23°C° 0.2 mm 1 mps 756 mmHg 68%
14:00 +22°C° 0.4 mm 1 mps 756 mmHg 75%
15:00 +21°C° 0.4 mm 1 mps 756 mmHg 82%
16:00 +19°C° 0.4 mm 1 mps 756 mmHg 89%
17:00 +19°C° 0.7 mm 1 mps 756 mmHg 91%
18:00 +18°C° 0.7 mm 1 mps 757 mmHg 93%
19:00 +16°C° 0.7 mm 1 mps 757 mmHg 95%
20:00 +16°C° 0.5 mm 1 mps 757 mmHg 94%
21:00 +16°C° 0.5 mm 2 mps 758 mmHg 94%
22:00 +16°C° 0.5 mm 2 mps 758 mmHg 94%
23:00 +16°C° 0.2 mm 2 mps 758 mmHg 94%

Tomorrow, 13 July, Monday

Time Temperature Precipitation Wind Pressure Humidity
00:00 +16°C° 0.2 mm 1 mps 758 mmHg 94%
01:00 +16°C° 0.2 mm 1 mps 758 mmHg 93%
02:00 +16°C° 0.2 mm 1 mps 757 mmHg 94%
03:00 +15°C° 0.2 mm 1 mps 757 mmHg 94%
04:00 +15°C° 0.2 mm 1 mps 757 mmHg 95%
05:00 +15°C° 0.4 mm 1 mps 758 mmHg 95%
06:00 +15°C° 0.4 mm 2 mps 758 mmHg 96%
07:00 +15°C° 0.4 mm 2 mps 758 mmHg 96%
08:00 +16°C° 0.2 mm 2 mps 759 mmHg 91%
09:00 +17°C° 0.2 mm 2 mps 759 mmHg 86%
10:00 +19°C° 0.2 mm 2 mps 759 mmHg 81%
11:00 +19°C° 0.5 mm 2 mps 758 mmHg 76%
12:00 +19°C° 0.5 mm 2 mps 758 mmHg 71%
13:00 +20°C° 0.5 mm 2 mps 757 mmHg 66%
14:00 +19°C° 0.1 mm 2 mps 757 mmHg 61%
15:00 +19°C° 0.1 mm 2 mps 757 mmHg 55%
16:00 +19°C° 0.1 mm 2 mps 757 mmHg 50%
17:00 +17°C° 0 mm 3 mps 757 mmHg 53%
18:00 +14°C° 0 mm 4 mps 758 mmHg 57%
19:00 +12°C° 0 mm 5 mps 758 mmHg 60%
20:00 +10°C° 0 mm 5 mps 759 mmHg 63%
21:00 +9°C° 0 mm 5 mps 759 mmHg 67%
22:00 +9°C° 0 mm 5 mps 759 mmHg 70%
23:00 +8°C° 0 mm 4 mps 759 mmHg 72%

Day after tomorrow, 14 July, Tuesday

Time Temperature Precipitation Wind Pressure Humidity
00:00 +7°C° 0 mm 4 mps 759 mmHg 74%
01:00 +7°C° 0 mm 4 mps 759 mmHg 76%
02:00 +6°C° 0 mm 4 mps 758 mmHg 77%
03:00 +6°C° 0 mm 4 mps 758 mmHg 78%
04:00 +6°C° 0 mm 4 mps 758 mmHg 79%
05:00 +5°C° 0 mm 4 mps 758 mmHg 80%
06:00 +5°C° 0 mm 4 mps 758 mmHg 82%
07:00 +5°C° 0 mm 4 mps 759 mmHg 83%
08:00 +8°C° 0 mm 4 mps 759 mmHg 71%
09:00 +11°C° 0 mm 4 mps 759 mmHg 60%
10:00 +14°C° 0 mm 4 mps 759 mmHg 49%
11:00 +17°C° 0 mm 4 mps 758 mmHg 44%
12:00 +18°C° 0 mm 4 mps 757 mmHg 39%
13:00 +19°C° 0 mm 5 mps 756 mmHg 35%
14:00 +19°C° 0 mm 5 mps 756 mmHg 39%
15:00 +19°C° 0 mm 5 mps 756 mmHg 44%
16:00 +19°C° 0 mm 5 mps 756 mmHg 48%
17:00 +17°C° 0 mm 4 mps 756 mmHg 54%
18:00 +14°C° 0 mm 4 mps 757 mmHg 60%
19:00 +12°C° 0 mm 4 mps 757 mmHg 66%
20:00 +12°C° 0 mm 4 mps 758 mmHg 69%
21:00 +11°C° 0 mm 4 mps 758 mmHg 72%
22:00 +11°C° 0 mm 3 mps 759 mmHg 75%
23:00 +10°C° 0 mm 3 mps 758 mmHg 78%

15 July, Wednesday

Time Temperature Precipitation Wind Pressure Humidity
00:00 +9°C° 0 mm 3 mps 758 mmHg 81%
01:00 +9°C° 0 mm 3 mps 758 mmHg 83%
02:00 +8°C° 0 mm 3 mps 758 mmHg 84%
03:00 +8°C° 0 mm 3 mps 758 mmHg 85%
04:00 +8°C° 0 mm 3 mps 758 mmHg 86%
05:00 +8°C° 0 mm 3 mps 758 mmHg 86%
06:00 +7°C° 0 mm 3 mps 758 mmHg 86%
07:00 +7°C° 0 mm 3 mps 758 mmHg 86%
08:00 +10°C° 0 mm 3 mps 758 mmHg 74%
09:00 +13°C° 0 mm 3 mps 758 mmHg 62%
10:00 +17°C° 0 mm 3 mps 758 mmHg 50%
11:00 +18°C° 0 mm 3 mps 757 mmHg 47%
12:00 +19°C° 0 mm 3 mps 757 mmHg 44%
13:00 +20°C° 0 mm 2 mps 756 mmHg 41%
14:00 +20°C° 0 mm 2 mps 756 mmHg 43%
15:00 +19°C° 0 mm 2 mps 756 mmHg 46%
16:00 +20°C° 0 mm 1 mps 755 mmHg 48%
17:00 +18°C° 0 mm 1 mps 756 mmHg 55%
18:00 +15°C° 0 mm 1 mps 756 mmHg 61%
19:00 +12°C° 0 mm 1 mps 757 mmHg 68%
20:00 +12°C° 0 mm 2 mps 757 mmHg 69%
21:00 +10°C° 0 mm 3 mps 757 mmHg 71%
22:00 +10°C° 0 mm 4 mps 757 mmHg 72%
23:00 +8°C° 0 mm 4 mps 757 mmHg 72%

16 July, Thursday

Time Temperature Precipitation Wind Pressure Humidity
00:00 +9°C° 0 mm 3 mps 757 mmHg 72%
01:00 +8°C° 0 mm 3 mps 756 mmHg 73%
02:00 +8°C° 0 mm 3 mps 756 mmHg 73%
03:00 +7°C° 0 mm 3 mps 756 mmHg 74%
04:00 +7°C° 0 mm 3 mps 756 mmHg 75%
05:00 +7°C° 0 mm 2 mps 757 mmHg 76%
06:00 +7°C° 0 mm 2 mps 757 mmHg 76%
07:00 +7°C° 0 mm 2 mps 757 mmHg 77%
08:00 +10°C° 0 mm 2 mps 757 mmHg 69%
09:00 +13°C° 0 mm 3 mps 757 mmHg 60%
10:00 +17°C° 0 mm 3 mps 757 mmHg 52%
11:00 +18°C° 0 mm 4 mps 757 mmHg 50%
12:00 +19°C° 0 mm 5 mps 756 mmHg 48%
13:00 +20°C° 0 mm 5 mps 756 mmHg 46%
14:00 +20°C° 0 mm 5 mps 756 mmHg 49%
15:00 +19°C° 0 mm 5 mps 756 mmHg 51%
16:00 +19°C° 0 mm 5 mps 756 mmHg 53%
17:00 +16°C° 0 mm 5 mps 757 mmHg 60%
18:00 +14°C° 0 mm 6 mps 757 mmHg 67%
19:00 +11°C° 0 mm 6 mps 758 mmHg 74%
20:00 +10°C° 0 mm 6 mps 758 mmHg 75%
21:00 +10°C° 0 mm 6 mps 759 mmHg 76%
22:00 +9°C° 0 mm 6 mps 759 mmHg 77%
23:00 +9°C° 0 mm 6 mps 759 mmHg 79%

17 July, Friday

Time Temperature Precipitation Wind Pressure Humidity
00:00 +9°C° 0 mm 5 mps 759 mmHg 80%
01:00 +8°C° 0 mm 5 mps 759 mmHg 81%
02:00 +8°C° 0 mm 5 mps 759 mmHg 82%
03:00 +8°C° 0 mm 5 mps 759 mmHg 83%
04:00 +8°C° 0 mm 5 mps 759 mmHg 84%
05:00 +8°C° 0 mm 4 mps 759 mmHg 84%
06:00 +8°C° 0 mm 4 mps 760 mmHg 84%
07:00 +8°C° 0 mm 4 mps 760 mmHg 84%
08:00 +10°C° 0 mm 5 mps 760 mmHg 76%
09:00 +14°C° 0 mm 5 mps 760 mmHg 67%
10:00 +16°C° 0 mm 6 mps 760 mmHg 59%
11:00 +17°C° 0 mm 6 mps 760 mmHg 58%
12:00 +17°C° 0 mm 6 mps 760 mmHg 57%
13:00 +17°C° 0 mm 6 mps 759 mmHg 56%
14:00 +17°C° 0 mm 6 mps 759 mmHg 58%
15:00 +17°C° 0 mm 6 mps 759 mmHg 59%
16:00 +17°C° 0 mm 6 mps 759 mmHg 60%
17:00 +15°C° 0 mm 6 mps 760 mmHg 68%
18:00 +13°C° 0 mm 6 mps 760 mmHg 76%
19:00 +10°C° 0 mm 5 mps 761 mmHg 84%
20:00 +10°C° 0 mm 5 mps 761 mmHg 86%
21:00 +9°C° 0 mm 5 mps 762 mmHg 88%
22:00 +8°C° 0 mm 5 mps 762 mmHg 90%
23:00 +8°C° 0 mm 5 mps 762 mmHg 91%
Show more